sat.trackr.live / text

‹ back to catalog

STARLINK-36587

NORAD 67532 · 2026-014A

PAYLOAD ACTIVE UNKNOWN

§ Identity

Operator
Country
US
Launch date
2026-01-22
Launch site
AFWTR
Launch vehicle
Mass (kg)
RCS (m²)

Purposes: comms

External: N2YO · Heavens-Above · Gunter

§ Orbital elements

Epoch: 2026-09-19T11:25:06.378528Z

Period
93.91 min
Inclination
97.2846°
Eccentricity
0.0001779
Mean motion
15.33443803 rev/d
Perigee alt
464.3 km
Apogee alt
466.8 km
Semi-major
6,843.7 km
B*
1.6542e-4
RAAN
147.8926°
Arg perigee
94.7401°
Mean anomaly
265.4045°
Rev number
3,848

§ Raw data

STARLINK-365871 67532U 26014A   26262.47576827  .00005269  00000+0  16542-3 0  99922 67532  97.2846 147.8926 0001779  94.7401 265.4045 15.33443803 38480

JSON: /api/v1/satellites/67532 · /tle

For live sub-satellite position, see the globe view (requires WebGL).

§ Visibility from observer

Set your observer location to see the next 7 days of passes ≥ 10°. The values pass through the URL so the page stays shareable.

No JS? Fill the form by hand. The geolocation button needs JavaScript.